Location: Street
(51.1247°N, 2.7429°W)
Time: 08:17:24
(UTC+00:00)

Tiros 1 - Pass Details

Date: 26 November 2020
Orbit: 630 x 663 km, 48.4° (Epoch: 28 January)

Event Time Altitude Azimuth Distance (km) Brightness Sun altitude
Rises 15:34:33 0° 196° (SSW) 2,983 11.6 3.7°
Reaches altitude 10° 15:37:51 10° 172° (S) 2,073 10.3 3.3°
Maximum altitude 15:40:26 15° 139° (SE) 1,781 9.5 2.9°
Drops below altitude 10° 15:43:02 10° 106° (ESE) 2,072 9.4 2.6°
Sets 15:46:20 0° 83° (E) 2,983 10.0 2.2°
